Frontier, WY

1:09 PM MDT on August 30, 2016 (GMT -0600)
Kemmerer Municipal

Weather History for KEMM - September, 2013

Change the Weather History Date:

Wednesday, September 11, 2013

  Actual Average Record
Temperature  
Mean Temperature 56 °F -  
Max Temperature 62 °F 71 °F 82 °F (1968)
Min Temperature 51 °F 37 °F 26 °F (1957)
Degree Days  
Heating Degree Days 8    
Growing Degree Days 6 (Base 50)    
Moisture  
Dew Point 49 °F    
Average Humidity 82    
Maximum Humidity 100    
Minimum Humidity 63    
Precipitation  
Precipitation 0.37 in - - ()
Sea Level Pressure  
Sea Level Pressure 30.32 in    
Wind  
Wind Speed 17 mph (ENE)    
Max Wind Speed 24 mph    
Max Gust Speed 30 mph    
Visibility 9 miles    
Events Rain , Thunderstorm    
Averages and records for this station are not official NWS values.
T = Trace of Precipitation, MM = Missing Value Source: NWS Daily Summary

Daily Weather History Graph

Daily Weather History Graph

Search for Another Location

Airport or City:

Trip Planner

Search our weather history database for the weather conditions in past years. The results will help you decide how hot, cold, wet, or windy it might be!

Date:

Astronomy

Sep. 11, 2013 Rise Set
Actual Time 6:58 AM MDT 7:38 PM MDT
Civil Twilight 6:30 AM MDT 8:06 PM MDT
Nautical Twilight 5:57 AM MDT 8:39 PM MDT
Astronomical Twilight 5:22 AM MDT 9:13 PM MDT
Moon 1:36 PM MDT (9/11) 11:31 PM MDT (9/11)
Length of Visible Light 13h 35m
Length of Day
12h 39m
Waxing Crescent, 39% of the Moon is Illuminated
Sep 11
Waxing Crescent
Sep 12
First Quarter
Sep 19
Full
Sep 26
Last Quarter
Oct 4
New

Hourly Weather History & Observations

Time (MDT) Temp. Dew Point Humidity Pressure Visibility Wind Dir Wind Speed Gust Speed Precip Events Conditions
12:15 AM 55.4 °F 48.2 °F 77% 30.28 in 10.0 mi ENE 13.8 mph 19.6 mph N/A   Overcast
12:35 AM 55.4 °F 48.2 °F 77% 30.29 in 10.0 mi ENE 9.2 mph - N/A   Overcast
12:55 AM 55.4 °F 48.2 °F 77% 30.29 in 10.0 mi ENE 17.3 mph 23.0 mph N/A   Overcast
1:15 AM 55.4 °F 46.4 °F 72% 30.29 in 10.0 mi ENE 17.3 mph - N/A   Overcast
1:35 AM 53.6 °F 48.2 °F 82% 30.29 in 10.0 mi ENE 16.1 mph 21.9 mph N/A   Overcast
1:55 AM 53.6 °F 48.2 °F 82% 30.28 in 10.0 mi ENE 18.4 mph - N/A   Overcast
2:15 AM 53.6 °F 48.2 °F 82% 30.28 in 10.0 mi ENE 19.6 mph 24.2 mph N/A   Overcast
2:35 AM 53.6 °F 48.2 °F 82% 30.27 in 10.0 mi ENE 17.3 mph - N/A   Overcast
2:55 AM 53.6 °F 46.4 °F 77% 30.27 in 10.0 mi ENE 15.0 mph - N/A   Overcast
3:15 AM 53.6 °F 46.4 °F 77% 30.28 in 10.0 mi East 13.8 mph - N/A   Overcast
3:35 AM 53.6 °F 46.4 °F 77% 30.27 in 10.0 mi ENE 18.4 mph 23.0 mph N/A   Overcast
3:55 AM 55.4 °F 46.4 °F 72% 30.27 in 10.0 mi ENE 20.7 mph 27.6 mph N/A   Overcast
4:15 AM 55.4 °F 46.4 °F 72% 30.28 in 10.0 mi East 17.3 mph 25.3 mph N/A   Overcast
4:35 AM 53.6 °F 46.4 °F 77% 30.28 in 10.0 mi ENE 23.0 mph 27.6 mph N/A   Overcast
4:55 AM 53.6 °F 44.6 °F 72% 30.28 in 10.0 mi ENE 19.6 mph - N/A   Overcast
5:15 AM 53.6 °F 44.6 °F 72% 30.28 in 10.0 mi ENE 18.4 mph - N/A   Overcast
5:35 AM 53.6 °F 44.6 °F 72% 30.28 in 10.0 mi ENE 18.4 mph - N/A   Overcast
5:55 AM 53.6 °F 44.6 °F 72% 30.28 in 10.0 mi ENE 19.6 mph - N/A   Overcast
6:15 AM 53.6 °F 44.6 °F 72% 30.29 in 10.0 mi ENE 18.4 mph 21.9 mph N/A   Overcast
6:35 AM 53.6 °F 44.6 °F 72% 30.29 in 10.0 mi East 17.3 mph 24.2 mph N/A   Overcast
6:55 AM 53.6 °F 44.6 °F 72% 30.29 in 10.0 mi ENE 17.3 mph - N/A   Overcast
7:15 AM 53.6 °F 44.6 °F 72% 30.29 in 10.0 mi East 19.6 mph 25.3 mph N/A   Overcast
7:35 AM 53.6 °F 44.6 °F 72% 30.30 in 10.0 mi ENE 16.1 mph 23.0 mph N/A   Overcast
7:55 AM 53.6 °F 44.6 °F 72% 30.30 in 10.0 mi East 20.7 mph 25.3 mph N/A   Overcast
8:15 AM 55.4 °F 44.6 °F 67% 30.30 in 10.0 mi East 18.4 mph - N/A   Overcast
8:35 AM 55.4 °F 42.8 °F 63% 30.30 in 10.0 mi East 17.3 mph 25.3 mph N/A   Mostly Cloudy
8:55 AM 55.4 °F 42.8 °F 63% 30.31 in 10.0 mi East 15.0 mph 24.2 mph N/A   Mostly Cloudy
9:15 AM 55.4 °F 44.6 °F 67% 30.31 in 10.0 mi East 18.4 mph 26.5 mph N/A   Overcast
9:35 AM 53.6 °F 46.4 °F 77% 30.32 in 10.0 mi East 17.3 mph 24.2 mph N/A Rain Light Rain
9:55 AM 55.4 °F 46.4 °F 72% 30.32 in 10.0 mi East 16.1 mph 24.2 mph N/A   Overcast
10:15 AM 55.4 °F 46.4 °F 72% 30.32 in 10.0 mi East 21.9 mph 27.6 mph N/A   Overcast
10:35 AM 53.6 °F 48.2 °F 82% 30.32 in 10.0 mi East 18.4 mph 27.6 mph N/A   Overcast
10:55 AM 53.6 °F 50.0 °F 88% 30.34 in 5.0 mi East 15.0 mph 26.5 mph N/A Rain Light Rain
11:15 AM 53.6 °F 51.8 °F 94% 30.34 in 4.0 mi East 18.4 mph 26.5 mph 0.01 in Rain Light Rain
11:35 AM 51.8 °F 50.0 °F 94% 30.34 in 4.0 mi East 18.4 mph 25.3 mph 0.01 in Rain Light Rain
11:55 AM 51.8 °F 50.0 °F 94% 30.34 in 7.0 mi ENE 21.9 mph 25.3 mph 0.03 in Rain Light Rain
12:15 PM 51.8 °F 50.0 °F 94% 30.34 in 10.0 mi East 21.9 mph 28.8 mph 0.01 in Rain Light Rain
12:35 PM 51.8 °F 51.8 °F 100% 30.34 in 10.0 mi East 18.4 mph 23.0 mph 0.03 in Rain Light Rain
12:55 PM 53.6 °F 53.6 °F 100% 30.34 in 10.0 mi ENE 19.6 mph 26.5 mph 0.04 in Rain Light Rain
1:15 PM 57.2 °F 53.6 °F 88% 30.34 in 10.0 mi ENE 18.4 mph 23.0 mph N/A   Overcast
1:35 PM 57.2 °F 51.8 °F 82% 30.34 in 10.0 mi ENE 17.3 mph 25.3 mph N/A   Overcast
1:55 PM 59.0 °F 51.8 °F 77% 30.33 in 10.0 mi ENE 19.6 mph - N/A   Overcast
2:15 PM 60.8 °F 51.8 °F 72% 30.32 in 10.0 mi ENE 23.0 mph 26.5 mph N/A   Overcast
2:35 PM 59.0 °F 51.8 °F 77% 30.34 in 10.0 mi ENE 17.3 mph - N/A   Overcast
2:55 PM 62.6 °F 51.8 °F 68% 30.33 in 10.0 mi ENE 18.4 mph 25.3 mph N/A   Overcast
3:15 PM 60.8 °F 51.8 °F 72% 30.33 in 10.0 mi ENE 19.6 mph 26.5 mph N/A   Overcast
3:35 PM 59.0 °F 51.8 °F 77% 30.34 in 10.0 mi ENE 23.0 mph 26.5 mph N/A   Overcast
3:55 PM 59.0 °F 51.8 °F 77% 30.33 in 10.0 mi ENE 20.7 mph 25.3 mph N/A   Overcast
4:15 PM 59.0 °F 51.8 °F 77% 30.32 in 10.0 mi ENE 24.2 mph 29.9 mph N/A   Overcast
4:35 PM 55.4 °F 51.8 °F 88% 30.32 in 10.0 mi NE 19.6 mph 28.8 mph N/A Rain Rain
4:55 PM 53.6 °F 51.8 °F 94% 30.34 in 10.0 mi NE 18.4 mph 23.0 mph N/A   Overcast
5:15 PM 55.4 °F 51.8 °F 88% 30.34 in 10.0 mi NE 17.3 mph 23.0 mph N/A   Overcast
5:35 PM 55.4 °F 51.8 °F 88% 30.33 in 10.0 mi NE 17.3 mph 25.3 mph N/A   Overcast
5:55 PM 55.4 °F 51.8 °F 88% 30.34 in 10.0 mi NE 15.0 mph 19.6 mph N/A   Overcast
6:15 PM 55.4 °F 51.8 °F 88% 30.33 in 10.0 mi NE 13.8 mph - N/A Thunderstorm Overcast
6:35 PM 55.4 °F 51.8 °F 88% 30.32 in 10.0 mi NE 13.8 mph 20.7 mph N/A   Overcast
6:55 PM 53.6 °F 51.8 °F 94% 30.32 in 10.0 mi NE 15.0 mph - N/A Rain Light Rain
7:15 PM 53.6 °F 51.8 °F 94% 30.32 in 10.0 mi NE 15.0 mph - N/A Thunderstorm Overcast
7:35 PM 53.6 °F 50.0 °F 88% 30.32 in 10.0 mi ENE 13.8 mph - N/A   Overcast
7:55 PM 53.6 °F 50.0 °F 88% 30.33 in 10.0 mi ENE 15.0 mph - N/A   Overcast
8:15 PM 53.6 °F 50.0 °F 88% 30.34 in 10.0 mi ENE 15.0 mph 20.7 mph N/A   Overcast
8:35 PM 53.6 °F 50.0 °F 88% 30.34 in 7.0 mi NE 20.7 mph 24.2 mph 0.01 in Rain Rain
8:55 PM 51.8 °F 50.0 °F 94% 30.34 in 5.0 mi NE 18.4 mph - 0.06 in Rain Light Rain
9:15 PM 51.8 °F 50.0 °F 94% 30.34 in 7.0 mi NE 20.7 mph 24.2 mph 0.02 in Rain Rain
9:35 PM 51.8 °F 50.0 °F 94% 30.34 in 10.0 mi ENE 20.7 mph 26.5 mph 0.05 in Rain Light Rain
9:55 PM 51.8 °F 51.8 °F 100% 30.35 in 7.0 mi NE 19.6 mph 25.3 mph 0.06 in Rain Light Rain
10:15 PM 51.8 °F 50.0 °F 94% 30.35 in 10.0 mi ENE 18.4 mph - 0.01 in Rain Light Rain
10:35 PM 51.8 °F 51.8 °F 100% 30.35 in 7.0 mi ENE 18.4 mph 27.6 mph 0.04 in Rain Rain
10:55 PM 51.8 °F 51.8 °F 100% 30.35 in 4.0 mi ENE 16.1 mph - 0.14 in Rain Rain
11:15 PM 51.8 °F 51.8 °F 100% 30.34 in 5.0 mi ENE 21.9 mph 26.5 mph 0.04 in Rain Light Rain
11:35 PM 51.8 °F 51.8 °F 100% 30.34 in 10.0 mi ENE 24.2 mph - 0.04 in   Overcast
11:55 PM 51.8 °F 51.8 °F 100% 30.34 in 10.0 mi ENE 19.6 mph 26.5 mph 0.04 in   Overcast